Voltar ao catálogo

HISPASAT 1A

AtivoComunicaçõesGEO
NORAD 22116·PAYLOAD·🇪🇸 Spain

Lançado Sep 10, 1992 de Guiana Space Centre

Loading…

TLE

AtualizadoSource: Space-Track

Época: Sep 13, 2026, 22:36 UTC

1 22116U 92060A   26256.94216950  .00000055  00000-0  00000-0 0  9996
2 22116  14.2539   9.5883 0003899 270.5860  95.1080  0.99314624120383

Acompanhe HISPASAT 1A em tempo real com AllMySat

Download on the App Store